STARLINK-11130, 59950

Orbit data source: Space-Track

STARLINK-11130, 59950 is a payload satellite owned by SpaceX/Seattle (US) in LEO that was launched on Wed, 05 Jun 2024 UTC via an FALCON 9 launch vehicle from the Air Force Eastern Test Range (AFETR). Payload-class satellites include a variety of spacecraft equipped with specific instruments for various scientific and technological missions. These include communications satellites like Starlink; space stations such as the ISS; scientific satellites like the Hubble; Earth observation satellites from companies like Planet Labs, Umbra, and HawkEye 360; GPS; miniature CubeSats for education and research; and military/defense satellites.

Loading next visibility...
Identifier
59950, 2024-107F
Orbit
LEO
Country
Flag of USUS
Related business
Manufacturer
SpaceX/Seattle
Mission
Operational spacecraft
Bus & Motor
STARLINK V2MD, Unknown motor
Mass
960 kg wet, ~910 kg dry
Launch date (UTC)
2024-06-05 (1 year ago)
Launch vehicle
FALCON 9
Launch site
Air Force Eastern Test Range (AFETR)
Object type
Payload
Rocket body
Debris
Shape & HBR
Unknown
Radar Cross Section
Large (>1 m²)

Expand to show TLE details & history
Last TLE update: 1 day ago

TLE from 1 day ago
0 STARLINK-11130
1 59950U 24107F   25260.63395747  .00003638  00000-0  34867-4 0  9993
2 59950  53.1588  24.5103 0001518  82.8741 277.2450 15.69714925 74962
Epoch: 2025-09-17T15:12Z
TLE epoch observation values (Epoch: 2025-09-17T15:12:53.925Z)
Latitude
0.00002°
Longitude
159.47854°
Altitude
360.499 km
Speed
7.694 km/s
True Right ascension
01h 38m 02s
True Declination
0° 00' 00"
Sunlit
Object was in full shadow at epoch
Visualization orbit readout
Latitude
Unknown
Longitude
Unknown
Altitude
Unknown
Speed
Unknown
Apparent Right ascension
Unknown
Apparent Declination
Unknown
Sunlit
N/A
Visualization observer readout
Local Sidereal Time
13:53:12
Azimuth
Unknown
Elevation
Unknown
Doppler factor
Unknown
Orbital elements
Apogee altitude
360.996 km
Perigee altitude
358.951 km
Semi-major axis
6,738.111 km
Eccentricity
0.00015
Inclination
53.1588°
RAAN
24.5103°
Arg. of periapsis
82.8741°
True anomaly
277.22774°
Mean anomaly
277.245°
Eccentric anomaly
277.23637°
Mean motion
3.92406 °/min
Orbital period
91.74 mins
BSTAR
0.000034867
Loading maneuver chart data...
Computing Atmospheric mass density...
Loading historical data...
Loading historical data...
Loading historical data...
Loading historical data...
Loading historical data...
Loading historical data...
Loading historical data...

Documentation

Showing up to 5 results
|